Year,Month,Day,Hour,Minute,Value (Times are PST for temperature in C)
2020,10,01,00,00,13.70
2020,10,01,00,01,13.60
2020,10,01,00,02,13.60
2020,10,01,00,03,13.50
2020,10,01,00,04,13.50
2020,10,01,00,05,13.40
2020,10,01,00,06,13.40
2020,10,01,00,07,13.30
2020,10,01,00,08,13.30
2020,10,01,00,09,13.30
2020,10,01,00,10,13.30
2020,10,01,00,11,13.30
2020,10,01,00,12,13.20
2020,10,01,00,13,13.20
2020,10,01,00,14,13.20
2020,10,01,00,15,13.20
2020,10,01,00,16,13.20
2020,10,01,00,17,13.20
2020,10,01,00,18,13.30
2020,10,01,00,19,13.30
2020,10,01,00,20,13.40
2020,10,01,00,21,13.40
2020,10,01,00,22,13.50
2020,10,01,00,23,13.50
2020,10,01,00,24,13.50
2020,10,01,00,25,13.50
2020,10,01,00,26,13.50
2020,10,01,00,27,13.50
2020,10,01,00,28,13.50
2020,10,01,00,29,13.50
2020,10,01,00,30,13.50
2020,10,01,00,31,13.50
2020,10,01,00,32,13.50
2020,10,01,00,33,13.50
2020,10,01,00,34,13.40
2020,10,01,00,35,13.40
2020,10,01,00,36,13.40
2020,10,01,00,37,13.40
2020,10,01,00,38,13.40
2020,10,01,00,39,13.40
2020,10,01,00,40,13.30
2020,10,01,00,41,13.30
2020,10,01,00,42,13.30
2020,10,01,00,43,13.30
2020,10,01,00,44,13.30
2020,10,01,00,45,13.30
2020,10,01,00,46,13.30
2020,10,01,00,47,13.30
2020,10,01,00,48,13.30
2020,10,01,00,49,13.30
2020,10,01,00,50,13.40
2020,10,01,00,51,13.40
2020,10,01,00,52,13.40
2020,10,01,00,53,13.40
2020,10,01,00,54,13.40
2020,10,01,00,55,13.50
2020,10,01,00,56,13.50
2020,10,01,00,57,13.40
2020,10,01,00,58,13.40
2020,10,01,00,59,13.40
2020,10,01,01,00,13.40
2020,10,01,01,01,13.40
2020,10,01,01,02,13.30
2020,10,01,01,03,13.30
2020,10,01,01,04,13.30
2020,10,01,01,05,13.30
2020,10,01,01,06,13.20
2020,10,01,01,07,13.20
2020,10,01,01,08,13.20
2020,10,01,01,09,13.20
2020,10,01,01,10,13.20
2020,10,01,01,11,13.10
2020,10,01,01,12,13.10
2020,10,01,01,13,13.10
2020,10,01,01,14,13.20
2020,10,01,01,15,13.20
2020,10,01,01,16,13.30
2020,10,01,01,17,13.30
2020,10,01,01,18,13.30
2020,10,01,01,19,13.30
2020,10,01,01,20,13.40
2020,10,01,01,21,13.40
2020,10,01,01,22,13.40
2020,10,01,01,23,13.40
2020,10,01,01,24,13.30
2020,10,01,01,25,13.40
2020,10,01,01,26,13.40
2020,10,01,01,27,13.40
2020,10,01,01,28,13.50
2020,10,01,01,29,13.50
2020,10,01,01,30,13.50
2020,10,01,01,31,13.50
2020,10,01,01,32,13.50
2020,10,01,01,33,13.50
2020,10,01,01,34,13.50
2020,10,01,01,35,13.40
2020,10,01,01,36,13.40
2020,10,01,01,37,13.30
2020,10,01,01,38,13.30
2020,10,01,01,39,13.20
2020,10,01,01,40,13.20
2020,10,01,01,41,13.20
2020,10,01,01,42,13.10
2020,10,01,01,43,13.10
2020,10,01,01,44,13.10
2020,10,01,01,45,13.10
2020,10,01,01,46,13.20
2020,10,01,01,47,13.20
2020,10,01,01,48,13.30
2020,10,01,01,49,13.30
2020,10,01,01,50,13.30
2020,10,01,01,51,13.30
2020,10,01,01,52,13.20
2020,10,01,01,53,13.20
2020,10,01,01,54,13.10
2020,10,01,01,55,13.10
2020,10,01,01,56,13.10
2020,10,01,01,57,13.00
2020,10,01,01,58,13.00
2020,10,01,01,59,13.00
2020,10,01,02,00,12.90
2020,10,01,02,01,12.90
2020,10,01,02,02,12.90
2020,10,01,02,03,13.00
2020,10,01,02,04,13.00
2020,10,01,02,05,13.00
2020,10,01,02,06,13.00
2020,10,01,02,07,13.00
2020,10,01,02,08,13.10
2020,10,01,02,09,13.10
2020,10,01,02,10,13.10
2020,10,01,02,11,13.10
2020,10,01,02,12,13.10
2020,10,01,02,13,13.10
2020,10,01,02,14,13.10
2020,10,01,02,15,13.10
2020,10,01,02,16,13.10
2020,10,01,02,17,13.00
2020,10,01,02,18,13.00
2020,10,01,02,19,13.00
2020,10,01,02,20,12.90
2020,10,01,02,21,12.90
2020,10,01,02,22,12.80
2020,10,01,02,23,12.80
2020,10,01,02,24,12.80
2020,10,01,02,25,12.80
2020,10,01,02,26,12.80
2020,10,01,02,27,12.80
2020,10,01,02,28,12.80
2020,10,01,02,29,12.80
2020,10,01,02,30,12.80
2020,10,01,02,31,12.80
2020,10,01,02,32,12.80
2020,10,01,02,33,12.80
2020,10,01,02,34,12.80
2020,10,01,02,35,12.80
2020,10,01,02,36,12.80
2020,10,01,02,37,12.80
2020,10,01,02,38,12.80
2020,10,01,02,39,12.70
2020,10,01,02,40,12.70
2020,10,01,02,41,12.70
2020,10,01,02,42,12.70
2020,10,01,02,43,12.70
2020,10,01,02,44,12.70
2020,10,01,02,45,12.80
2020,10,01,02,46,12.80
2020,10,01,02,47,12.80
2020,10,01,02,48,12.80
2020,10,01,02,49,12.80
2020,10,01,02,50,12.80
2020,10,01,02,51,12.80
2020,10,01,02,52,12.80
2020,10,01,02,53,12.70
2020,10,01,02,54,12.70
2020,10,01,02,55,12.60
2020,10,01,02,56,12.60
2020,10,01,02,57,12.60
2020,10,01,02,58,12.50
2020,10,01,02,59,12.50
2020,10,01,03,00,12.40
2020,10,01,03,01,12.30
2020,10,01,03,02,12.30
2020,10,01,03,03,12.30
2020,10,01,03,04,12.30
2020,10,01,03,05,12.20
2020,10,01,03,06,12.20
2020,10,01,03,07,12.20
2020,10,01,03,08,12.10
2020,10,01,03,09,12.10
2020,10,01,03,10,12.00
2020,10,01,03,11,12.00
2020,10,01,03,12,11.90
2020,10,01,03,13,11.90
2020,10,01,03,14,11.80
2020,10,01,03,15,11.80
2020,10,01,03,16,11.80
2020,10,01,03,17,11.80
2020,10,01,03,18,11.80
2020,10,01,03,19,11.80
2020,10,01,03,20,11.80
2020,10,01,03,21,11.80
2020,10,01,03,22,11.80
2020,10,01,03,23,11.80
2020,10,01,03,24,11.80
2020,10,01,03,25,11.80
2020,10,01,03,26,11.80
2020,10,01,03,27,11.70
2020,10,01,03,28,11.70
2020,10,01,03,29,11.70
2020,10,01,03,30,11.70
2020,10,01,03,31,11.70
2020,10,01,03,32,11.70
2020,10,01,03,33,11.70
2020,10,01,03,34,11.80
2020,10,01,03,35,11.80
2020,10,01,03,36,11.80
2020,10,01,03,37,11.80
2020,10,01,03,38,11.80
2020,10,01,03,39,11.80
2020,10,01,03,40,11.80
2020,10,01,03,41,11.80
2020,10,01,03,42,11.90
2020,10,01,03,43,11.90
2020,10,01,03,44,11.90
2020,10,01,03,45,11.90
2020,10,01,03,46,11.90
2020,10,01,03,47,11.90
2020,10,01,03,48,11.90
2020,10,01,03,49,11.90
2020,10,01,03,50,11.90
2020,10,01,03,51,11.90
2020,10,01,03,52,11.90
2020,10,01,03,53,11.90
2020,10,01,03,54,11.90
2020,10,01,03,55,11.90
2020,10,01,03,56,11.90
2020,10,01,03,57,11.90
2020,10,01,03,58,11.90
2020,10,01,03,59,11.90
2020,10,01,04,00,11.90
2020,10,01,04,01,11.90
2020,10,01,04,02,11.80
2020,10,01,04,03,11.80
2020,10,01,04,04,11.80
2020,10,01,04,05,11.80
2020,10,01,04,06,11.80
2020,10,01,04,07,11.80
2020,10,01,04,08,11.80
2020,10,01,04,09,11.80
2020,10,01,04,10,11.80
2020,10,01,04,11,11.80
2020,10,01,04,12,11.70
2020,10,01,04,13,11.70
2020,10,01,04,14,11.70
2020,10,01,04,15,11.70
2020,10,01,04,16,11.80
2020,10,01,04,17,11.80
2020,10,01,04,18,11.80
2020,10,01,04,19,11.80
2020,10,01,04,20,11.80
2020,10,01,04,21,11.80
2020,10,01,04,22,11.80
2020,10,01,04,23,11.80
2020,10,01,04,24,11.90
2020,10,01,04,25,11.90
2020,10,01,04,26,11.90
2020,10,01,04,27,11.90
2020,10,01,04,28,12.00
2020,10,01,04,29,12.00
2020,10,01,04,30,12.00
2020,10,01,04,31,11.90
2020,10,01,04,32,11.90
2020,10,01,04,33,11.90
2020,10,01,04,34,11.90
2020,10,01,04,35,11.80
2020,10,01,04,36,11.80
2020,10,01,04,37,11.80
2020,10,01,04,38,11.80
2020,10,01,04,39,11.80
2020,10,01,04,40,11.80
2020,10,01,04,41,11.80
2020,10,01,04,42,11.80
2020,10,01,04,43,11.80
2020,10,01,04,44,11.80
2020,10,01,04,45,11.80
2020,10,01,04,46,11.80
2020,10,01,04,47,11.70
2020,10,01,04,48,11.70
2020,10,01,04,49,11.70
2020,10,01,04,50,11.60
2020,10,01,04,51,11.60
2020,10,01,04,52,11.60
2020,10,01,04,53,11.60
2020,10,01,04,54,11.70
2020,10,01,04,55,11.70
2020,10,01,04,56,11.70
2020,10,01,04,57,11.70
2020,10,01,04,58,11.70
2020,10,01,04,59,11.80
2020,10,01,05,00,11.80
2020,10,01,05,01,11.80
2020,10,01,05,02,11.80
2020,10,01,05,03,11.80
2020,10,01,05,04,11.80
2020,10,01,05,05,11.80
2020,10,01,05,06,11.80
2020,10,01,05,07,11.80
2020,10,01,05,08,11.80
2020,10,01,05,09,11.80
2020,10,01,05,10,11.80
2020,10,01,05,11,11.80
2020,10,01,05,12,11.80
2020,10,01,05,13,11.80
2020,10,01,05,14,11.80
2020,10,01,05,15,11.80
2020,10,01,05,16,11.80
2020,10,01,05,17,11.80
2020,10,01,05,18,11.80
2020,10,01,05,19,11.80
2020,10,01,05,20,11.80
2020,10,01,05,21,11.80
2020,10,01,05,22,11.80
2020,10,01,05,23,11.80
2020,10,01,05,24,11.80
2020,10,01,05,25,11.80
2020,10,01,05,26,11.80
2020,10,01,05,27,11.80
2020,10,01,05,28,11.80
2020,10,01,05,29,11.80
2020,10,01,05,30,11.80
2020,10,01,05,31,11.80
2020,10,01,05,32,11.80
2020,10,01,05,33,11.80
2020,10,01,05,34,11.80
2020,10,01,05,35,11.70
2020,10,01,05,36,11.70
2020,10,01,05,37,11.70
2020,10,01,05,38,11.70
2020,10,01,05,39,11.70
2020,10,01,05,40,11.60
2020,10,01,05,41,11.60
2020,10,01,05,42,11.70
2020,10,01,05,43,11.70
2020,10,01,05,44,11.70
2020,10,01,05,45,11.70
2020,10,01,05,46,11.80
2020,10,01,05,47,11.80
2020,10,01,05,48,11.80
2020,10,01,05,49,11.80
2020,10,01,05,50,11.80
2020,10,01,05,51,11.80
2020,10,01,05,52,11.80
2020,10,01,05,53,11.80
2020,10,01,05,54,11.80
2020,10,01,05,55,11.80
2020,10,01,05,56,11.80
2020,10,01,05,57,11.80
2020,10,01,05,58,11.80
2020,10,01,05,59,11.80
2020,10,01,06,00,11.70
2020,10,01,06,01,11.70
2020,10,01,06,02,11.60
2020,10,01,06,03,11.60
2020,10,01,06,04,11.60
2020,10,01,06,05,11.60
2020,10,01,06,06,11.50
2020,10,01,06,07,11.40
2020,10,01,06,08,11.40
2020,10,01,06,09,11.40
2020,10,01,06,10,11.30
2020,10,01,06,11,11.30
2020,10,01,06,12,11.20
2020,10,01,06,13,11.20
2020,10,01,06,14,11.20
2020,10,01,06,15,11.20
2020,10,01,06,16,11.10
2020,10,01,06,17,11.10
2020,10,01,06,18,11.10
2020,10,01,06,19,11.10
2020,10,01,06,20,11.10
2020,10,01,06,21,11.10
2020,10,01,06,22,11.10
2020,10,01,06,23,11.10
2020,10,01,06,24,11.10
2020,10,01,06,25,11.10
2020,10,01,06,26,11.10
2020,10,01,06,27,11.10
2020,10,01,06,28,11.10
2020,10,01,06,29,11.10
2020,10,01,06,30,11.10
2020,10,01,06,31,11.10
2020,10,01,06,32,11.10
2020,10,01,06,33,11.10
2020,10,01,06,34,11.10
2020,10,01,06,35,11.20
2020,10,01,06,36,11.20
2020,10,01,06,37,11.20
2020,10,01,06,38,11.20
2020,10,01,06,39,11.20
2020,10,01,06,40,11.30
2020,10,01,06,41,11.30
2020,10,01,06,42,11.30
2020,10,01,06,43,11.30
2020,10,01,06,44,11.30
2020,10,01,06,45,11.30
2020,10,01,06,46,11.30
2020,10,01,06,47,11.20
2020,10,01,06,48,11.20
2020,10,01,06,49,11.20
2020,10,01,06,50,11.20
2020,10,01,06,51,11.10
2020,10,01,06,52,11.10
2020,10,01,06,53,11.10
2020,10,01,06,54,11.10
2020,10,01,06,55,11.10
2020,10,01,06,56,11.10
2020,10,01,06,57,11.10
2020,10,01,06,58,11.10
2020,10,01,06,59,11.10
2020,10,01,07,00,11.10
2020,10,01,07,01,11.10
2020,10,01,07,02,11.10
2020,10,01,07,03,11.10
2020,10,01,07,04,11.10
2020,10,01,07,05,11.10
2020,10,01,07,06,11.10
2020,10,01,07,07,11.10
2020,10,01,07,08,11.10
2020,10,01,07,09,11.10
2020,10,01,07,10,11.10
2020,10,01,07,11,11.10
2020,10,01,07,12,11.10
2020,10,01,07,13,11.10
2020,10,01,07,14,11.10
2020,10,01,07,15,11.10
2020,10,01,07,16,11.10
2020,10,01,07,17,11.10
2020,10,01,07,18,11.10
2020,10,01,07,19,11.10
2020,10,01,07,20,11.10
2020,10,01,07,21,11.10
2020,10,01,07,22,11.10
2020,10,01,07,23,11.00
2020,10,01,07,24,10.90
2020,10,01,07,25,10.90
2020,10,01,07,26,10.90
2020,10,01,07,27,10.90
2020,10,01,07,28,10.90
2020,10,01,07,29,10.90
2020,10,01,07,30,10.90
2020,10,01,07,31,10.90
2020,10,01,07,32,10.90
2020,10,01,07,33,10.80
2020,10,01,07,34,10.80
2020,10,01,07,35,10.80
2020,10,01,07,36,10.70
2020,10,01,07,37,10.70
2020,10,01,07,38,10.70
2020,10,01,07,39,10.70
2020,10,01,07,40,10.70
2020,10,01,07,41,10.70
2020,10,01,07,42,10.70
2020,10,01,07,43,10.70
2020,10,01,07,44,10.70
2020,10,01,07,45,10.70
2020,10,01,07,46,10.70
2020,10,01,07,47,10.70
2020,10,01,07,48,10.80
2020,10,01,07,49,10.80
2020,10,01,07,50,10.90
2020,10,01,07,51,10.90
2020,10,01,07,52,10.90
2020,10,01,07,53,10.90
2020,10,01,07,54,10.90
2020,10,01,07,55,10.90
2020,10,01,07,56,10.90
2020,10,01,07,57,10.90
2020,10,01,07,58,10.90
2020,10,01,07,59,10.80
2020,10,01,08,00,10.80
2020,10,01,08,01,10.80
2020,10,01,08,02,10.80
2020,10,01,08,03,10.80
2020,10,01,08,04,10.90
2020,10,01,08,05,10.90
2020,10,01,08,06,10.90
2020,10,01,08,07,10.90
2020,10,01,08,08,11.00
2020,10,01,08,09,11.10
2020,10,01,08,10,11.10
2020,10,01,08,11,11.10
2020,10,01,08,12,11.20
2020,10,01,08,13,11.20
2020,10,01,08,14,11.20
2020,10,01,08,15,11.20
2020,10,01,08,16,11.20
2020,10,01,08,17,11.20
2020,10,01,08,18,11.20
2020,10,01,08,19,11.20
2020,10,01,08,20,11.30
2020,10,01,08,21,11.30
2020,10,01,08,22,11.40
2020,10,01,08,23,11.40
2020,10,01,08,24,11.40
2020,10,01,08,25,11.40
2020,10,01,08,26,11.50
2020,10,01,08,27,11.60
2020,10,01,08,28,11.60
2020,10,01,08,29,11.60
2020,10,01,08,30,11.70
2020,10,01,08,31,11.80
2020,10,01,08,32,11.80
2020,10,01,08,33,11.90
2020,10,01,08,34,11.90
2020,10,01,08,35,11.90
2020,10,01,08,36,12.00
2020,10,01,08,37,12.00
2020,10,01,08,38,12.00
2020,10,01,08,39,12.00
2020,10,01,08,40,12.00
2020,10,01,08,41,12.00
2020,10,01,08,42,12.00
2020,10,01,08,43,12.00
2020,10,01,08,44,12.00
2020,10,01,08,45,12.10
2020,10,01,08,46,12.10
2020,10,01,08,47,12.20
2020,10,01,08,48,12.20
2020,10,01,08,49,12.30
2020,10,01,08,50,12.30
2020,10,01,08,51,12.30
2020,10,01,08,52,12.40
2020,10,01,08,53,12.50
2020,10,01,08,54,12.60
2020,10,01,08,55,12.70
2020,10,01,08,56,12.70
2020,10,01,08,57,12.80
2020,10,01,08,58,12.90
2020,10,01,08,59,13.00
2020,10,01,09,00,13.10
2020,10,01,09,01,13.20
2020,10,01,09,02,13.30
2020,10,01,09,03,13.30
2020,10,01,09,04,13.30
2020,10,01,09,05,13.40
2020,10,01,09,06,13.40
2020,10,01,09,07,13.40
2020,10,01,09,08,13.50
2020,10,01,09,09,13.50
2020,10,01,09,10,13.50
2020,10,01,09,11,13.60
2020,10,01,09,12,13.60
2020,10,01,09,13,13.70
2020,10,01,09,14,13.70
2020,10,01,09,15,13.70
2020,10,01,09,16,13.80
2020,10,01,09,17,13.90
2020,10,01,09,18,13.90
2020,10,01,09,19,14.00
2020,10,01,09,20,14.10
2020,10,01,09,21,14.20
2020,10,01,09,22,14.20
2020,10,01,09,23,14.20
2020,10,01,09,24,14.20
2020,10,01,09,25,14.40
2020,10,01,09,26,14.50
2020,10,01,09,27,14.50
2020,10,01,09,28,14.60
2020,10,01,09,29,14.60
2020,10,01,09,30,14.50
2020,10,01,09,31,14.50
2020,10,01,09,32,14.50
2020,10,01,09,33,14.60
2020,10,01,09,34,14.70
2020,10,01,09,35,14.80
2020,10,01,09,36,14.80
2020,10,01,09,37,14.90
2020,10,01,09,38,15.00
2020,10,01,09,39,15.10
2020,10,01,09,40,15.20
2020,10,01,09,41,15.20
2020,10,01,09,42,15.30
2020,10,01,09,43,15.30
2020,10,01,09,44,15.30
2020,10,01,09,45,15.30
2020,10,01,09,46,15.30
2020,10,01,09,47,15.30
2020,10,01,09,48,15.30
2020,10,01,09,49,15.40
2020,10,01,09,50,15.50
2020,10,01,09,51,15.50
2020,10,01,09,52,15.50
2020,10,01,09,53,15.50
2020,10,01,09,54,15.60
2020,10,01,09,55,15.60
2020,10,01,09,56,15.60
2020,10,01,09,57,15.70
2020,10,01,09,58,15.80
2020,10,01,09,59,15.80
2020,10,01,10,00,15.80
2020,10,01,10,01,15.80
2020,10,01,10,02,15.90
2020,10,01,10,03,15.90
2020,10,01,10,04,15.90
2020,10,01,10,05,16.00
2020,10,01,10,06,16.10
2020,10,01,10,07,16.10
2020,10,01,10,08,16.10
2020,10,01,10,09,16.20
2020,10,01,10,10,16.20
2020,10,01,10,11,16.20
2020,10,01,10,12,16.20
2020,10,01,10,13,16.30
2020,10,01,10,14,16.30
2020,10,01,10,15,16.20
2020,10,01,10,16,16.20
2020,10,01,10,17,16.20
2020,10,01,10,18,16.20
2020,10,01,10,19,16.30
2020,10,01,10,20,16.30
2020,10,01,10,21,16.30
2020,10,01,10,22,16.40
2020,10,01,10,23,16.40
2020,10,01,10,24,16.40
2020,10,01,10,25,16.40
2020,10,01,10,26,16.60
2020,10,01,10,27,16.70
2020,10,01,10,28,16.70
2020,10,01,10,29,16.80
2020,10,01,10,30,16.80
2020,10,01,10,31,16.80
2020,10,01,10,32,16.90
2020,10,01,10,33,16.90
2020,10,01,10,34,16.90
2020,10,01,10,35,17.00
2020,10,01,10,36,17.10
2020,10,01,10,37,17.20
2020,10,01,10,38,17.30
2020,10,01,10,39,17.30
2020,10,01,10,40,17.30
2020,10,01,10,41,17.30
2020,10,01,10,42,17.40
2020,10,01,10,43,17.50
2020,10,01,10,44,17.50
2020,10,01,10,45,17.60
2020,10,01,10,46,17.70
2020,10,01,10,47,17.80
2020,10,01,10,48,17.90
2020,10,01,10,49,17.90
2020,10,01,10,50,17.90
2020,10,01,10,51,18.00
2020,10,01,10,52,18.10
2020,10,01,10,53,18.20
2020,10,01,10,54,18.20
2020,10,01,10,55,18.20
2020,10,01,10,56,18.30
2020,10,01,10,57,18.30
2020,10,01,10,58,18.40
2020,10,01,10,59,18.40
2020,10,01,11,00,18.40
2020,10,01,11,01,18.50
2020,10,01,11,02,18.50
2020,10,01,11,03,18.60
2020,10,01,11,04,18.60
2020,10,01,11,05,18.70
2020,10,01,11,06,18.70
2020,10,01,11,07,18.70
2020,10,01,11,08,18.70
2020,10,01,11,09,18.70
2020,10,01,11,10,18.80
2020,10,01,11,11,18.80
2020,10,01,11,12,18.90
2020,10,01,11,13,18.90
2020,10,01,11,14,19.00
2020,10,01,11,15,19.10
2020,10,01,11,16,19.10
2020,10,01,11,17,19.30
2020,10,01,11,18,19.30
2020,10,01,11,19,19.40
2020,10,01,11,20,19.40
2020,10,01,11,21,19.40
2020,10,01,11,22,19.50
2020,10,01,11,23,19.50
2020,10,01,11,24,19.50
2020,10,01,11,25,19.50
2020,10,01,11,26,19.50
2020,10,01,11,27,19.60
2020,10,01,11,28,19.60
2020,10,01,11,29,19.70
2020,10,01,11,30,19.80
2020,10,01,11,31,19.80
2020,10,01,11,32,19.90
2020,10,01,11,33,19.90
2020,10,01,11,34,19.90
2020,10,01,11,35,19.90
2020,10,01,11,36,20.10
2020,10,01,11,37,20.10
2020,10,01,11,38,20.10
2020,10,01,11,39,20.20
2020,10,01,11,40,20.20
2020,10,01,11,41,20.20
2020,10,01,11,42,20.20
2020,10,01,11,43,20.30
2020,10,01,11,44,20.30
2020,10,01,11,45,20.30
2020,10,01,11,46,20.30
2020,10,01,11,47,20.30
2020,10,01,11,48,20.40
2020,10,01,11,49,20.40
2020,10,01,11,50,20.30
2020,10,01,11,51,20.30
2020,10,01,11,52,20.20
2020,10,01,11,53,20.20
2020,10,01,11,54,20.30
2020,10,01,11,55,20.50
2020,10,01,11,56,20.60
2020,10,01,11,57,20.60
2020,10,01,11,58,20.60
2020,10,01,11,59,20.50
2020,10,01,12,00,20.60
2020,10,01,12,01,20.50
2020,10,01,12,02,20.50
2020,10,01,12,03,20.40
2020,10,01,12,04,20.30
2020,10,01,12,05,20.30
2020,10,01,12,06,20.30
2020,10,01,12,07,20.20
2020,10,01,12,08,20.20
2020,10,01,12,09,20.20
2020,10,01,12,10,20.30
2020,10,01,12,11,20.40
2020,10,01,12,12,20.50
2020,10,01,12,13,20.60
2020,10,01,12,14,20.60
2020,10,01,12,15,20.60
2020,10,01,12,16,20.60
2020,10,01,12,17,20.60
2020,10,01,12,18,20.60
2020,10,01,12,19,20.70
2020,10,01,12,20,20.80
2020,10,01,12,21,20.80
2020,10,01,12,22,20.90
2020,10,01,12,23,20.80
2020,10,01,12,24,20.80
2020,10,01,12,25,20.90
2020,10,01,12,26,20.90
2020,10,01,12,27,20.90
2020,10,01,12,28,21.00
2020,10,01,12,29,21.00
2020,10,01,12,30,21.00
2020,10,01,12,31,21.00
2020,10,01,12,32,21.00
2020,10,01,12,33,21.00
2020,10,01,12,34,21.20
2020,10,01,12,35,21.20
2020,10,01,12,36,21.30
2020,10,01,12,37,21.40
2020,10,01,12,38,21.60
2020,10,01,12,39,21.80
2020,10,01,12,40,21.90
2020,10,01,12,41,21.90
2020,10,01,12,42,21.80
2020,10,01,12,43,21.70
2020,10,01,12,44,21.70
2020,10,01,12,45,21.60
2020,10,01,12,46,21.60
2020,10,01,12,47,21.60
2020,10,01,12,48,21.60
2020,10,01,12,49,21.60
2020,10,01,12,50,21.50
2020,10,01,12,51,21.40
2020,10,01,12,52,21.40
2020,10,01,12,53,21.40
2020,10,01,12,54,21.40
2020,10,01,12,55,21.60
2020,10,01,12,56,21.60
2020,10,01,12,57,21.60
2020,10,01,12,58,21.60
2020,10,01,12,59,21.80
2020,10,01,13,00,21.80
2020,10,01,13,01,21.80
2020,10,01,13,02,21.80
2020,10,01,13,03,21.80
2020,10,01,13,04,21.70
2020,10,01,13,05,21.80
2020,10,01,13,06,21.90
2020,10,01,13,07,22.00
2020,10,01,13,08,22.00
2020,10,01,13,09,22.00
2020,10,01,13,10,22.10
2020,10,01,13,11,22.10
2020,10,01,13,12,22.10
2020,10,01,13,13,22.00
2020,10,01,13,14,22.00
2020,10,01,13,15,21.90
2020,10,01,13,16,21.90
2020,10,01,13,17,21.90
2020,10,01,13,18,21.80
2020,10,01,13,19,21.80
2020,10,01,13,20,21.90
2020,10,01,13,21,21.80
2020,10,01,13,22,21.60
2020,10,01,13,23,21.50
2020,10,01,13,24,21.20
2020,10,01,13,25,21.10
2020,10,01,13,26,21.00
2020,10,01,13,27,20.90
2020,10,01,13,28,20.80
2020,10,01,13,29,20.70
2020,10,01,13,30,20.60
2020,10,01,13,31,20.50
2020,10,01,13,32,20.40
2020,10,01,13,33,20.30
2020,10,01,13,34,20.20
2020,10,01,13,35,20.10
2020,10,01,13,36,19.90
2020,10,01,13,37,19.80
2020,10,01,13,38,19.60
2020,10,01,13,39,19.60
2020,10,01,13,40,19.50
2020,10,01,13,41,19.40
2020,10,01,13,42,19.20
2020,10,01,13,43,19.10
2020,10,01,13,44,18.90
2020,10,01,13,45,18.90
2020,10,01,13,46,18.80
2020,10,01,13,47,18.80
2020,10,01,13,48,18.80
2020,10,01,13,49,18.80
2020,10,01,13,50,18.90
2020,10,01,13,51,18.80
2020,10,01,13,52,18.80
2020,10,01,13,53,18.80
2020,10,01,13,54,18.90
2020,10,01,13,55,18.90
2020,10,01,13,56,19.00
2020,10,01,13,57,19.10
2020,10,01,13,58,19.30
2020,10,01,13,59,19.40
2020,10,01,14,00,19.40
2020,10,01,14,01,19.40
2020,10,01,14,02,19.50
2020,10,01,14,03,19.50
2020,10,01,14,04,19.60
2020,10,01,14,05,19.70
2020,10,01,14,06,19.80
2020,10,01,14,07,19.90
2020,10,01,14,08,19.90
2020,10,01,14,09,20.00
2020,10,01,14,10,20.10
2020,10,01,14,11,20.10
2020,10,01,14,12,19.90
2020,10,01,14,13,19.80
2020,10,01,14,14,19.70
2020,10,01,14,15,19.60
2020,10,01,14,16,19.50
2020,10,01,14,17,19.50
2020,10,01,14,18,19.40
2020,10,01,14,19,19.30
2020,10,01,14,20,19.20
2020,10,01,14,21,19.10
2020,10,01,14,22,19.10
2020,10,01,14,23,19.10
2020,10,01,14,24,19.10
2020,10,01,14,25,19.10
2020,10,01,14,26,19.10
2020,10,01,14,27,19.10
2020,10,01,14,28,19.10
2020,10,01,14,29,19.00
2020,10,01,14,30,18.90
2020,10,01,14,31,18.90
2020,10,01,14,32,18.90
2020,10,01,14,33,18.70
2020,10,01,14,34,18.60
2020,10,01,14,35,18.60
2020,10,01,14,36,18.50
2020,10,01,14,37,18.50
2020,10,01,14,38,18.50
2020,10,01,14,39,18.50
2020,10,01,14,40,18.60
2020,10,01,14,41,18.60
2020,10,01,14,42,18.70
2020,10,01,14,43,18.70
2020,10,01,14,44,18.80
2020,10,01,14,45,18.80
2020,10,01,14,46,18.80
2020,10,01,14,47,18.80
2020,10,01,14,48,18.80
2020,10,01,14,49,18.80
2020,10,01,14,50,18.90
2020,10,01,14,51,18.90
2020,10,01,14,52,18.90
2020,10,01,14,53,18.90
2020,10,01,14,54,18.90
2020,10,01,14,55,18.90
2020,10,01,14,56,18.90
2020,10,01,14,57,18.90
2020,10,01,14,58,19.00
2020,10,01,14,59,19.10
2020,10,01,15,00,19.10
2020,10,01,15,01,19.10
2020,10,01,15,02,19.20
2020,10,01,15,03,19.20
2020,10,01,15,04,19.20
2020,10,01,15,05,19.30
2020,10,01,15,06,19.30
2020,10,01,15,07,19.20
2020,10,01,15,08,19.30
2020,10,01,15,09,19.30
2020,10,01,15,10,19.40
2020,10,01,15,11,19.50
2020,10,01,15,12,19.70
2020,10,01,15,13,19.80
2020,10,01,15,14,19.90
2020,10,01,15,15,19.90
2020,10,01,15,16,20.10
2020,10,01,15,17,20.20
2020,10,01,15,18,20.30
2020,10,01,15,19,20.40
2020,10,01,15,20,20.60
2020,10,01,15,21,20.70
2020,10,01,15,22,20.80
2020,10,01,15,23,20.90
2020,10,01,15,24,20.90
2020,10,01,15,25,20.90
2020,10,01,15,26,21.00
2020,10,01,15,27,21.00
2020,10,01,15,28,21.00
2020,10,01,15,29,21.00
2020,10,01,15,30,21.10
2020,10,01,15,31,21.10
2020,10,01,15,32,21.10
2020,10,01,15,33,21.00
2020,10,01,15,34,20.90
2020,10,01,15,35,20.80
2020,10,01,15,36,20.70
2020,10,01,15,37,20.50
2020,10,01,15,38,20.40
2020,10,01,15,39,20.30
2020,10,01,15,40,20.20
2020,10,01,15,41,20.00
2020,10,01,15,42,19.90
2020,10,01,15,43,19.70
2020,10,01,15,44,19.60
2020,10,01,15,45,19.50
2020,10,01,15,46,19.40
2020,10,01,15,47,19.40
2020,10,01,15,48,19.40
2020,10,01,15,49,19.40
2020,10,01,15,50,19.40
2020,10,01,15,51,19.40
2020,10,01,15,52,19.40
2020,10,01,15,53,19.30
2020,10,01,15,54,19.30
2020,10,01,15,55,19.30
2020,10,01,15,56,19.20
2020,10,01,15,57,19.10
2020,10,01,15,58,19.10
2020,10,01,15,59,19.10
2020,10,01,16,00,19.10
2020,10,01,16,01,19.10
2020,10,01,16,02,19.10
2020,10,01,16,03,19.10
2020,10,01,16,04,19.10
2020,10,01,16,05,19.00
2020,10,01,16,06,18.90
2020,10,01,16,07,18.80
2020,10,01,16,08,18.70
2020,10,01,16,09,18.70
2020,10,01,16,10,18.60
2020,10,01,16,11,18.60
2020,10,01,16,12,18.60
2020,10,01,16,13,18.60
2020,10,01,16,14,18.60
2020,10,01,16,15,18.50
2020,10,01,16,16,18.50
2020,10,01,16,17,18.50
2020,10,01,16,18,18.50
2020,10,01,16,19,18.50
2020,10,01,16,20,18.50
2020,10,01,16,21,18.50
2020,10,01,16,22,18.50
2020,10,01,16,23,18.50
2020,10,01,16,24,18.50
2020,10,01,16,25,18.50
2020,10,01,16,26,18.50
2020,10,01,16,27,18.50
2020,10,01,16,28,18.50
2020,10,01,16,29,18.50
2020,10,01,16,30,18.50
2020,10,01,16,31,18.40
2020,10,01,16,32,18.40
2020,10,01,16,33,18.40
2020,10,01,16,34,18.40
2020,10,01,16,35,18.30
2020,10,01,16,36,18.30
2020,10,01,16,37,18.30
2020,10,01,16,38,18.30
2020,10,01,16,39,18.30
2020,10,01,16,40,18.30
2020,10,01,16,41,18.30
2020,10,01,16,42,18.30
2020,10,01,16,43,18.30
2020,10,01,16,44,18.30
2020,10,01,16,45,18.30
2020,10,01,16,46,18.30
2020,10,01,16,47,18.30
2020,10,01,16,48,18.30
2020,10,01,16,49,18.30
2020,10,01,16,50,18.40
2020,10,01,16,51,18.40
2020,10,01,16,52,18.40
2020,10,01,16,53,18.30
2020,10,01,16,54,18.30
2020,10,01,16,55,18.30
2020,10,01,16,56,18.30
2020,10,01,16,57,18.30
2020,10,01,16,58,18.30
2020,10,01,16,59,18.30
2020,10,01,17,00,18.30
2020,10,01,17,01,18.30
2020,10,01,17,02,18.30
2020,10,01,17,03,18.30
2020,10,01,17,04,18.30
2020,10,01,17,05,18.30
2020,10,01,17,06,18.30
2020,10,01,17,07,18.40
2020,10,01,17,08,18.40
2020,10,01,17,09,18.40
2020,10,01,17,10,18.40
2020,10,01,17,11,18.50
2020,10,01,17,12,18.50
2020,10,01,17,13,18.50
2020,10,01,17,14,18.50
2020,10,01,17,15,18.50
2020,10,01,17,16,18.40
2020,10,01,17,17,18.40
2020,10,01,17,18,18.40
2020,10,01,17,19,18.40